DK0KTL-4 Weather Reports


Display with metric or nautical units.
time (UTC)temp
F
wind
direction
speed
MPH
gust
MPH
rain 1hr
in
rain 24hr
in
rain mn
in
humidity
%
barometer
mb
20260507074325 49 294 1.0 3.0 0.02 1.00 1.00 95 1009.4
20260507073824 49 263 1.0 4.0 0.02 1.00 1.00 95 1009.4
20260507073324 49 322 1.0 3.0 0.02 1.00 1.00 96 1009.3
20260507072824 50 286 0.0 4.0 0.01 0.99 0.99 96 1009.2
20260507072323 49 291 0.0 2.0 0.01 0.99 0.99 96 1009.2
20260507071323 50 248 1.0 2.0 0.02 0.99 0.99 95 1009.0
20260507065822 50 322 1.0 3.0 0.09 0.99 0.99 95 1008.8
20260507063821 49 334 1.0 3.0 0.14 0.98 0.98 95 1008.5
20260507062820 50 317 1.0 4.0 0.16 0.98 0.98 95 1008.3
20260507062320 50 106 1.0 6.0 0.17 0.98 0.98 95 1008.3
20260507061319 50 70 1.0 7.0 0.20 0.97 0.97 95 1008.3
20260507055819 51 331 0.0 1.0 0.21 0.90 0.90 95 1008.1
20260507055318 51 297 0.0 2.0 0.23 0.89 0.89 95 1008.0
20260507054818 51 313 0.0 2.0 0.23 0.87 0.87 95 1007.9
20260507053817 51 286 1.0 3.0 0.24 0.84 0.84 95 1007.8
20260507053317 51 317 1.0 3.0 0.24 0.83 0.83 95 1007.8
20260507052317 51 258 1.0 3.0 0.25 0.81 0.81 95 1007.6
20260507051816 51 284 0.0 4.0 0.25 0.79 0.79 95 1007.6
20260507050315 52 5 1.0 2.0 0.23 0.71 0.71 95 1007.3
20260507045815 52 248 2.0 4.0 0.24 0.69 0.69 95 1007.3
20260507044815 52 251 1.0 5.0 0.25 0.64 0.64 95 1007.2
20260507044314 52 103 1.0 4.0 0.26 0.62 0.62 95 1007.1
20260507042313 52 260 0.0 2.0 0.24 0.56 0.56 95 1006.8
20260507041312 52 295 1.0 2.0 0.24 0.52 0.52 95 1006.7
20260507040312 52 308 0.0 2.0 0.26 0.48 0.48 95 1006.5
20260507035311 52 264 0.0 3.0 0.24 0.40 0.40 95 1006.5
20260507034311 53 305 0.0 3.0 0.20 0.36 0.36 95 1006.5
20260507033810 53 350 0.0 2.0 0.18 0.34 0.34 95 1006.6
20260507032310 53 244 0.0 2.0 0.17 0.32 0.32 95 1006.5
20260507031309 53 244 0.0 1.0 0.14 0.28 0.28 95 1006.5
20260507025308 53 293 0.0 1.0 0.02 0.16 0.16 95 1006.5
20260507023807 53 293 0.0 0.0 0.03 0.16 0.16 95 1006.5
20260507023307 53 293 0.0 0.0 0.03 0.16 0.16 95 1006.4
20260507022306 53 293 0.0 1.0 0.02 0.15 0.15 95 1006.5
20260507021806 53 293 0.0 0.0 0.01 0.14 0.14 95 1006.4
20260507020305 53 293 0.0 1.0 0.01 0.14 0.14 95 1006.4
20260507015306 53 293 0.0 1.0 0.01 0.14 0.14 94 1006.4
20260507014304 53 293 0.0 0.0 0.01 0.14 0.14 94 1006.3
20260507013303 53 293 0.0 0.0 0.00 0.13 0.13 94 1006.3
20260507012306 53 293 0.0 1.0 0.01 0.13 0.13 94 1006.1
20260507011302 53 293 0.0 0.0 0.03 0.13 0.13 94 1006.1
20260507010301 53 293 0.0 0.0 0.05 0.13 0.13 94 1006.2
20260507004300 53 293 0.0 0.0 0.11 0.13 0.13 93 1006.1
20260507003800 53 293 0.0 0.0 0.12 0.13 0.13 93 1006.2
20260507002259 54 293 0.0 1.0 0.12 0.12 0.12 93 1006.2
20260507001759 54 293 0.0 0.0 0.11 0.11 0.11 93 1006.1
20260507001259 54 293 0.0 1.0 0.10 0.10 0.10 93 1006.2
20260506235257 54 292 0.0 0.0 0.05 0.05 0.05 92 1006.4
20260506234757 54 292 0.0 0.0 0.04 0.04 0.04 92 1006.4
20260506234257 54 292 0.0 0.0 0.02 0.02 0.02 92 1006.4
20260506233756 54 292 0.0 0.0 0.01 0.01 0.01 92 1006.3
20260506233256 54 292 0.0 0.0 0.00 0.00 0.00 92 1006.3
20260506232756 54 292 0.0 0.0 0.00 0.00 0.00 92 1006.2
20260506232256 54 292 0.0 0.0 0.00 0.00 0.00 92 1006.2
20260506231255 54 292 0.0 0.0 0.00 0.00 0.00 92 1006.2
20260506230755 54 292 0.0 1.0 0.00 0.00 0.00 92 1006.1
20260506230255 54 292 0.0 1.0 0.00 0.00 0.00 92 1006.2
20260506225754 54 266 0.0 1.0 0.00 0.00 0.00 92 1006.1
20260506225254 54 317 0.0 1.0 0.00 0.00 0.00 92 1006.1
20260506224754 54 23 0.0 0.0 0.00 0.00 0.00 92 1006.0
20260506224253 54 23 0.0 0.0 0.00 0.00 0.00 92 1006.0
20260506223253 54 23 0.0 0.0 0.00 0.00 0.00 92 1006.0
20260506222752 54 23 0.0 0.0 0.00 0.00 0.00 92 1006.0
20260506222252 54 23 0.0 1.0 0.00 0.00 0.00 92 1005.9
20260506221752 54 23 0.0 1.0 0.00 0.00 0.00 92 1005.9
20260506221252 54 23 0.0 1.0 0.00 0.00 0.00 92 1005.9
20260506220751 54 23 0.0 0.0 0.00 0.00 0.00 92 1005.9
20260506220251 54 23 0.0 0.0 0.00 0.00 0.00 92 1005.8
20260506215751 54 23 0.0 1.0 0.00 0.00 0.00 92 1005.8
20260506215250 54 23 0.0 1.0 0.00 0.01 0.00 91 1005.8
20260506214750 54 23 0.0 0.0 0.00 0.01 0.00 91 1005.8
20260506214250 54 23 0.0 0.0 0.00 0.01 0.00 91 1005.6
20260506213750 54 23 0.0 0.0 0.00 0.01 0.00 91 1005.6
20260506213249 54 23 0.0 1.0 0.00 0.01 0.00 90 1005.5
20260506212749 54 35 0.0 1.0 0.00 0.01 0.00 90 1005.3
20260506212249 54 140 0.0 0.0 0.00 0.01 0.00 90 1005.2
20260506211748 54 140 0.0 0.0 0.00 0.01 0.00 90 1005.3
20260506211248 54 140 0.0 0.0 0.00 0.01 0.00 90 1005.4
20260506210748 54 140 0.0 0.0 0.00 0.01 0.00 89 1005.4
20260506210248 54 140 0.0 0.0 0.00 0.01 0.00 89 1005.3
20260506205747 54 140 0.0 0.0 0.00 0.01 0.00 89 1005.4
20260506204747 54 138 0.0 0.0 0.00 0.29 0.00 89 1005.5
20260506204246 54 138 0.0 0.0 0.00 0.29 0.00 89 1005.5
20260506203746 55 138 0.0 0.0 0.00 0.29 0.00 89 1005.5
20260506203246 55 138 0.0 1.0 0.00 0.29 0.00 89 1005.5
20260506202745 55 349 0.0 0.0 0.00 0.29 0.00 89 1005.3
20260506202245 55 349 1.0 0.0 0.00 0.29 0.00 89 1005.4
20260506201245 55 219 0.0 2.0 0.00 0.29 0.00 89 1005.4
20260506200744 55 290 0.0 1.0 0.00 0.29 0.00 89 1005.4
20260506200244 55 288 0.0 1.0 0.00 0.29 0.00 89 1005.5
20260506195744 55 292 0.0 2.0 0.00 0.29 0.00 89 1005.5
20260506195244 55 264 0.0 2.0 0.00 0.75 0.00 89 1005.4
20260506194744 55 270 0.0 2.0 0.00 0.75 0.00 88 1005.3
20260506194243 55 308 0.0 2.0 0.00 0.75 0.00 88 1005.3
20260506193743 56 286 0.0 3.0 0.00 0.75 0.00 87 1005.2
20260506192242 56 314 1.0 4.0 0.00 0.75 0.96 84 1004.9
20260506191741 56 275 1.0 3.0 0.00 0.75 0.96 83 1004.9
20260506191241 56 298 1.0 2.0 0.00 0.75 0.96 82 1004.8
20260506190741 56 276 2.0 4.0 0.00 0.75 0.96 80 1004.8
20260506190241 57 311 3.0 6.0 0.00 0.75 0.96 79 1004.6
20260506184740 58 355 2.0 6.0 0.00 0.97 0.96 79 1004.4
20260506184239 58 232 2.0 7.0 0.00 0.97 0.96 79 1004.5
20260506183739 58 261 2.0 5.0 0.00 0.97 0.96 79 1004.4
20260506182739 60 239 3.0 12.0 0.00 0.97 0.96 79 1004.5
20260506182238 60 294 1.0 6.0 0.00 0.97 0.96 82 1004.3
20260506180737 61 299 0.0 3.0 0.00 0.97 0.96 80 1004.2
20260506180237 61 295 1.0 2.0 0.00 0.97 0.96 79 1004.0
20260506175737 61 306 1.0 5.0 0.00 0.97 0.96 78 1003.8
20260506175237 62 185 1.0 3.0 0.00 0.97 0.96 78 1003.7
20260506174236 62 248 1.0 2.0 0.00 0.97 0.96 78 1003.6
20260506173736 62 311 2.0 7.0 0.00 0.97 0.96 77 1003.6
20260506172735 63 313 1.0 2.0 0.00 0.97 0.96 76 1003.4
20260506172235 63 199 2.0 7.0 0.00 0.97 0.96 76 1003.4
20260506171735 63 321 2.0 6.0 0.00 0.97 0.96 76 1003.4
20260506170734 64 325 2.0 5.0 0.00 0.97 0.96 75 1003.3
20260506165733 64 271 2.0 6.0 0.00 0.97 0.96 74 1003.2
20260506165233 65 355 1.0 4.0 0.00 0.97 0.96 73 1003.2
20260506164733 65 264 1.0 4.0 0.00 0.97 0.96 73 1003.1
20260506164233 66 261 1.0 6.0 0.00 0.97 0.96 70 1003.1
20260506163732 66 154 2.0 5.0 0.00 0.97 0.96 68 1003.1
20260506163232 67 308 1.0 5.0 0.00 0.97 0.96 66 1003.0
20260506162732 68 217 1.0 4.0 0.00 0.97 0.96 64 1003.1
20260506162510 68 316 1.0 4.0 0.00 0.97 0.96 66 1003.2
20260506162231 68 316 1.0 4.0 0.00 0.97 0.96 66 1003.2
20260506161731 68 5 1.0 6.0 0.00 0.97 0.96 65 1003.2
20260506160731 67 248 1.0 6.0 0.00 0.97 0.96 65 1003.1
20260506160230 67 108 1.0 2.0 0.00 0.97 0.96 64 1003.2
20260506155730 67 355 1.0 3.0 0.00 0.97 0.96 56 1003.2
20260506155230 67 324 1.0 5.0 0.00 0.97 0.96 53 1003.2
20260506154229 67 169 3.0 6.0 0.00 0.97 0.96 52 1003.0
20260506153228 68 189 3.0 5.0 0.00 0.97 0.96 52 1003.2
20260506152728 68 224 3.0 6.0 0.00 0.97 0.96 50 1003.2
20260506152228 69 223 3.0 7.0 0.00 0.97 0.96 50 1003.3
20260506151728 69 196 2.0 7.0 0.00 0.97 0.96 51 1003.4
20260506151227 70 246 2.0 5.0 0.00 0.97 0.96 55 1003.5
20260506145726 69 232 2.0 8.0 0.00 0.97 0.96 51 1003.5
20260506145226 69 217 3.0 8.0 0.00 0.97 0.96 52 1003.4
20260506144726 69 230 3.0 9.0 0.00 0.97 0.96 52 1003.5
20260506144226 69 184 3.0 6.0 0.00 0.97 0.96 51 1003.6
20260506143725 69 164 3.0 8.0 0.00 0.97 0.96 50 1003.6
20260506143225 69 341 3.0 5.0 0.00 0.97 0.96 54 1003.7
20260506142725 69 106 2.0 9.0 0.00 0.97 0.96 55 1003.5
20260506142224 69 163 3.0 10.0 0.00 0.97 0.96 55 1003.6
20260506141724 70 179 3.0 9.0 0.00 0.97 0.96 53 1003.6
20260506141224 70 241 3.0 7.0 0.00 0.97 0.96 51 1003.6
20260506140724 70 142 3.0 9.0 0.00 0.97 0.96 51 1003.6
20260506135723 69 305 4.0 10.0 0.00 0.97 0.96 54 1003.6
20260506135223 69 194 4.0 9.0 0.00 0.97 0.96 54 1003.7
20260506134222 70 132 3.0 7.0 0.00 0.97 0.96 51 1003.8
20260506133722 70 142 3.0 7.0 0.00 0.97 0.96 52 1003.8
20260506133221 70 232 4.0 9.0 0.00 0.97 0.96 51 1003.6
20260506132721 69 174 4.0 10.0 0.00 0.97 0.96 53 1003.8
20260506131220 68 129 4.0 9.0 0.00 0.97 0.96 54 1003.9
20260506130220 69 238 4.0 11.0 0.00 0.97 0.96 51 1004.1
20260506125719 69 234 4.0 9.0 0.00 0.97 0.96 52 1004.0
20260506124719 70 195 3.0 9.0 0.00 0.97 0.96 50 1004.1
20260506124219 69 242 2.0 7.0 0.00 0.97 0.96 57 1004.1
20260506123218 68 150 4.0 6.0 0.00 0.97 0.96 53 1004.0
20260506122217 68 227 4.0 8.0 0.00 0.97 0.96 55 1004.0
20260506121717 68 242 4.0 9.0 0.00 0.97 0.96 53 1004.0
20260506120216 67 173 5.0 8.0 0.00 0.97 0.96 58 1004.1
20260506114715 67 232 4.0 8.0 0.00 0.97 0.96 55 1004.0
20260506114215 67 99 4.0 10.0 0.00 0.97 0.96 56 1004.0
20260506112714 66 288 5.0 8.0 0.00 0.97 0.96 62 1004.1
20260506111213 64 286 3.0 8.0 0.00 0.97 0.96 66 1004.0
20260506110713 64 230 3.0 7.0 0.00 0.97 0.96 63 1004.1
20260506110213 64 274 3.0 8.0 0.00 0.97 0.96 65 1004.1
20260506105713 64 342 3.0 6.0 0.00 0.97 0.96 63 1004.1
20260506105212 64 261 4.0 10.0 0.00 0.97 0.96 61 1004.1
20260506104212 64 240 3.0 12.0 0.00 0.97 0.96 62 1004.2
20260506103711 64 157 3.0 8.0 0.00 0.97 0.96 66 1004.3
20260506103211 64 343 4.0 9.0 0.00 0.97 0.96 62 1004.3
20260506102210 64 263 3.0 7.0 0.00 0.97 0.96 63 1004.4
20260506101710 64 341 4.0 9.0 0.00 0.97 0.96 62 1004.4
20260506100710 64 128 3.0 7.0 0.00 0.97 0.96 65 1004.4
20260506100209 64 250 3.0 6.0 0.00 0.97 0.96 64 1004.5
20260506095709 64 57 5.0 7.0 0.00 0.97 0.96 64 1004.6
20260506095209 64 213 5.0 14.0 0.00 0.97 0.96 61 1004.5
20260506094709 64 234 5.0 8.0 0.00 0.97 0.96 65 1004.4
20260506094208 65 157 4.0 14.0 0.00 0.97 0.96 61 1004.3
20260506093208 64 200 4.0 11.0 0.00 0.97 0.96 63 1004.2
20260506092207 64 192 5.0 11.0 0.00 0.97 0.96 62 1004.1
20260506091206 65 225 5.0 10.0 0.00 0.97 0.96 67 1004.1
20260506085205 62 227 5.0 10.0 0.00 0.97 0.96 70 1004.1
20260506084205 62 221 6.0 11.0 0.00 0.97 0.96 70 1004.1
20260506083704 62 287 5.0 9.0 0.00 0.97 0.96 70 1004.0
20260506083204 63 222 4.0 8.0 0.00 0.97 0.96 69 1003.9
20260506081203 61 224 5.0 12.0 0.00 0.97 0.96 74 1003.7
20260506080703 61 302 3.0 9.0 0.00 0.97 0.96 74 1003.8
20260506080202 61 277 3.0 8.0 0.00 0.97 0.96 78 1003.7